Flag for Germany Weather past 2 weeks in Lüneburg, Lower Saxony, Germany

Now
50 °F

Passing clouds.


Feels Like: 50 °F
Forecast: 59 / 66 °F
Wind: No wind

Location: Fassberg

Current Time: Jul 7, 2015 at 4:37:54 AM

Latest Report: Jul 7, 2015 at 3:20 AM


Visibility: N/A

Pressure: 30.04 "Hg

Humidity: 94%

Dew point: 48 °F

Location of LüneburgLocation

Historic Weather in Lüneburg — Graph

°F

Lüneburg temperature yesterday

Maximum temperature yesterday: 75 °F (at 4:20 PM)
Minimum temperature yesterday: 59 °F (at 11:20 PM)
Average temperature yesterday: 68 °F

Past Weeks' High & Low Weather Summary

 TemperatureHumidityPressure
High99 °F (Jul 4, 2:20 PM)100% (Jun 22, 9:20 PM)30.30 "Hg (Jun 22, 9:20 PM)
Low48 °F (Jun 22, 11:20 PM)27% (Jul 4, 6:20 PM)29.65 "Hg (Jun 22, 9:20 PM)
Average66 °F68%30.06 "Hg
* Reported Jun 22 3:20 AM — Jul 7 3:20 AM, Lüneburg, Weather by CustomWeather, © 2015

Note: Actual official high and low records may vary slightly from our data, if they occured in-between our weather recording intervals... More about our weather records

Advertising

Lüneburg weather history for previous 24 hours

 ConditionsComfort  
Time TempWeatherWind HumidityBarometerVisibility
3:20 AM
Tue, Jul 7
50 °FPassing clouds.No wind94%30.04 "HgN/A
2:20 AM52 °FPassing clouds.No wind94%30.07 "HgN/A
1:20 AM54 °FPassing clouds.No wind82%30.07 "HgN/A
12:20 AM57 °FPassing clouds.1 mph77%30.07 "HgN/A
11:20 PM
Mon, Jul 6
59 °FPassing clouds.1 mph77%30.07 "HgN/A
10:20 PM66 °FPassing clouds.3 mph56%30.07 "HgN/A
9:20 PM70 °FPassing clouds.6 mph50%30.07 "HgN/A
8:20 PM72 °FPassing clouds.7 mph47%30.07 "HgN/A
7:20 PM73 °FScattered clouds.9 mph44%30.09 "HgN/A
6:20 PM73 °FScattered clouds.12 mph41%30.09 "HgN/A
5:20 PM73 °FScattered clouds.12 mph41%30.09 "HgN/A
5:00 PM75 °FScattered clouds.12 mph39%30.09 "HgN/A
4:20 PM75 °FScattered clouds.16 mph41%30.12 "HgN/A
3:20 PM73 °FScattered clouds.15 mph44%30.12 "HgN/A
2:20 PM72 °FScattered clouds.14 mph47%30.12 "HgN/A
1:20 PM72 °FScattered clouds.16 mph47%30.12 "HgN/A
12:20 PM70 °FScattered clouds.14 mph53%30.12 "HgN/A
11:20 AM70 °FPassing clouds.15 mph53%30.12 "HgN/A
10:20 AM68 °FPassing clouds.14 mph60%30.09 "HgN/A
9:20 AM66 °FPassing clouds.12 mph68%30.09 "HgN/A
8:20 AM63 °FScattered clouds.12 mph83%30.07 "HgN/A
7:20 AM61 °FScattered clouds.8 mph88%30.07 "HgN/A
6:20 AM61 °FPassing clouds.10 mph88%30.07 "HgN/A
5:20 AM61 °FPassing clouds.9 mph88%30.04 "HgN/A
4:20 AM63 °FPassing clouds.10 mph88%30.04 "HgN/A
Weather by CustomWeather, © 2015

See weather overviewHow to use our weather pages